owner,sensor,date,latitude,longitude,vertical_datum,mass_concentration_of_oxygen_in_sea_water,qcFlag 
DISL,ioos:station:DISL:CATA:1,2017-11-01T00:30:00Z,30.3085,-88.1395,2.166,9.69,1111122 
DISL,ioos:station:DISL:CATA:1,2017-11-01T01:30:00Z,30.3085,-88.1395,2.205,9.8,1111122 
DISL,ioos:station:DISL:CATA:1,2017-11-01T02:30:00Z,30.3085,-88.1395,2.251,9.64,1111122 
DISL,ioos:station:DISL:CATA:1,2017-11-01T03:30:00Z,30.3085,-88.1395,2.279,9.31,1111122 
DISL,ioos:station:DISL:CATA:1,2017-11-01T04:30:00Z,30.3085,-88.1395,2.282,9.3,1111122 
DISL,ioos:station:DISL:CATA:1,2017-11-01T05:30:00Z,30.3085,-88.1395,2.274,9.06,1111122 
DISL,ioos:station:DISL:CATA:1,2017-11-01T06:30:00Z,30.3085,-88.1395,2.255,8.84,1111122 
DISL,ioos:station:DISL:CATA:1,2017-11-01T07:30:00Z,30.3085,-88.1395,2.225,9.16,1111122 
DISL,ioos:station:DISL:CATA:1,2017-11-01T08:30:00Z,30.3085,-88.1395,2.215,9.61,1111122 
DISL,ioos:station:DISL:CATA:1,2017-11-01T09:30:00Z,30.3085,-88.1395,2.22,9.76,1111122 
DISL,ioos:station:DISL:CATA:1,2017-11-01T10:30:00Z,30.3085,-88.1395,2.24,9.69,1111122 
DISL,ioos:station:DISL:CATA:1,2017-11-01T11:30:00Z,30.3085,-88.1395,2.275,9.65,1111122 
DISL,ioos:station:DISL:CATA:1,2017-11-01T12:30:00Z,30.3085,-88.1395,2.301,9.35,1111122 
DISL,ioos:station:DISL:CATA:1,2017-11-01T13:30:00Z,30.3085,-88.1395,2.32,9.51,1111122 
DISL,ioos:station:DISL:CATA:1,2017-11-01T14:30:00Z,30.3085,-88.1395,2.353,9.49,1111122 
DISL,ioos:station:DISL:CATA:1,2017-11-01T15:30:00Z,30.3085,-88.1395,2.383,9.45,1111122 
DISL,ioos:station:DISL:CATA:1,2017-11-01T16:30:00Z,30.3085,-88.1395,2.411,9.49,1111122 
DISL,ioos:station:DISL:CATA:1,2017-11-01T17:30:00Z,30.3085,-88.1395,2.409,9.32,1111122 
DISL,ioos:station:DISL:CATA:1,2017-11-01T18:30:00Z,30.3085,-88.1395,2.39,9.06,1111122 
DISL,ioos:station:DISL:CATA:1,2017-11-01T19:30:00Z,30.3085,-88.1395,2.385,9.27,1111122 
DISL,ioos:station:DISL:CATA:1,2017-11-01T20:30:00Z,30.3085,-88.1395,2.371,9.73,1111122 
DISL,ioos:station:DISL:CATA:1,2017-11-01T21:30:00Z,30.3085,-88.1395,2.376,9.91,1111122 
DISL,ioos:station:DISL:CATA:1,2017-11-01T22:30:00Z,30.3085,-88.1395,2.404,9.76,1111122 
DISL,ioos:station:DISL:CATA:1,2017-11-01T23:30:00Z,30.3085,-88.1395,2.431,9.77,1111122 
DISL,ioos:station:DISL:CATA:1,2017-11-02T00:30:00Z,30.3085,-88.1395,2.445,9.57,1111122 
DISL,ioos:station:DISL:CATA:1,2017-11-02T01:30:00Z,30.3085,-88.1395,2.456,9.25,1111122 
DISL,ioos:station:DISL:CATA:1,2017-11-02T02:30:00Z,30.3085,-88.1395,2.465,9.42,1111122 
DISL,ioos:station:DISL:CATA:1,2017-11-02T03:30:00Z,30.3085,-88.1395,2.499,9.04,1111122 
DISL,ioos:station:DISL:CATA:1,2017-11-02T04:30:00Z,30.3085,-88.1395,2.512,9.12,1111122 
DISL,ioos:station:DISL:CATA:1,2017-11-02T05:30:00Z,30.3085,-88.1395,2.512,8.74,1111122 
DISL,ioos:station:DISL:CATA:1,2017-11-02T06:30:00Z,30.3085,-88.1395,2.46,8.19,1111122 
DISL,ioos:station:DISL:CATA:1,2017-11-02T07:30:00Z,30.3085,-88.1395,2.423,8.44,1111122 
DISL,ioos:station:DISL:CATA:1,2017-11-02T08:30:00Z,30.3085,-88.1395,2.369,8.17,1111122 
DISL,ioos:station:DISL:CATA:1,2017-11-02T09:30:00Z,30.3085,-88.1395,2.311,8.29,1111122 
DISL,ioos:station:DISL:CATA:1,2017-11-02T10:30:00Z,30.3085,-88.1395,2.292,8.28,1111122 
DISL,ioos:station:DISL:CATA:1,2017-11-02T11:30:00Z,30.3085,-88.1395,2.281,8.23,1111122 
DISL,ioos:station:DISL:CATA:1,2017-11-02T12:30:00Z,30.3085,-88.1395,2.261,8.18,1111122 
DISL,ioos:station:DISL:CATA:1,2017-11-02T13:30:00Z,30.3085,-88.1395,2.295,8.05,1111122 
DISL,ioos:station:DISL:CATA:1,2017-11-02T14:30:00Z,30.3085,-88.1395,2.314,7.48,1111122 
DISL,ioos:station:DISL:CATA:1,2017-11-02T15:30:00Z,30.3085,-88.1395,2.345,8.23,1111122 
DISL,ioos:station:DISL:CATA:1,2017-11-02T16:30:00Z,30.3085,-88.1395,2.364,8.46,1111122 
DISL,ioos:station:DISL:CATA:1,2017-11-02T17:30:00Z,30.3085,-88.1395,2.374,8.63,1111122 
DISL,ioos:station:DISL:CATA:1,2017-11-02T18:30:00Z,30.3085,-88.1395,2.371,8.95,1111122 
DISL,ioos:station:DISL:CATA:1,2017-11-02T19:30:00Z,30.3085,-88.1395,2.347,8.57,1111122 
DISL,ioos:station:DISL:CATA:1,2017-11-02T20:30:00Z,30.3085,-88.1395,2.335,8.79,1111122 
DISL,ioos:station:DISL:CATA:1,2017-11-02T21:30:00Z,30.3085,-88.1395,2.336,9.3,1111122 
DISL,ioos:station:DISL:CATA:1,2017-11-02T22:30:00Z,30.3085,-88.1395,2.362,9.16,1111122 
DISL,ioos:station:DISL:CATA:1,2017-11-02T23:30:00Z,30.3085,-88.1395,2.383,8.98,1111122 
DISL,ioos:station:DISL:CATA:1,2017-11-03T00:30:00Z,30.3085,-88.1395,2.402,8.51,1111122 
DISL,ioos:station:DISL:CATA:1,2017-11-03T01:30:00Z,30.3085,-88.1395,2.426,8.46,1111122 
DISL,ioos:station:DISL:CATA:1,2017-11-03T02:30:00Z,30.3085,-88.1395,2.444,8.74,1111122 
DISL,ioos:station:DISL:CATA:1,2017-11-03T03:30:00Z,30.3085,-88.1395,2.452,8.54,1111122 
DISL,ioos:station:DISL:CATA:1,2017-11-03T04:30:00Z,30.3085,-88.1395,2.452,8.43,1111122 
DISL,ioos:station:DISL:CATA:1,2017-11-03T05:30:00Z,30.3085,-88.1395,2.438,7.68,1111122 
DISL,ioos:station:DISL:CATA:1,2017-11-03T06:30:00Z,30.3085,-88.1395,2.389,8.01,1111122 
DISL,ioos:station:DISL:CATA:1,2017-11-03T07:30:00Z,30.3085,-88.1395,2.307,8.33,1111122 
DISL,ioos:station:DISL:CATA:1,2017-11-03T08:30:00Z,30.3085,-88.1395,2.242,8.76,1111122 
DISL,ioos:station:DISL:CATA:1,2017-11-03T09:30:00Z,30.3085,-88.1395,2.186,8.86,1111122 
DISL,ioos:station:DISL:CATA:1,2017-11-03T10:30:00Z,30.3085,-88.1395,2.136,8.8,1111122 
DISL,ioos:station:DISL:CATA:1,2017-11-03T11:30:00Z,30.3085,-88.1395,2.117,8.9,1111122 
DISL,ioos:station:DISL:CATA:1,2017-11-03T12:30:00Z,30.3085,-88.1395,2.143,8.9,1111122 
DISL,ioos:station:DISL:CATA:1,2017-11-03T13:30:00Z,30.3085,-88.1395,2.168,8.97,1111122 
DISL,ioos:station:DISL:CATA:1,2017-11-03T14:30:00Z,30.3085,-88.1395,2.192,8.6,1111122 
DISL,ioos:station:DISL:CATA:1,2017-11-03T15:30:00Z,30.3085,-88.1395,2.225,8.73,1111122 
DISL,ioos:station:DISL:CATA:1,2017-11-03T16:30:00Z,30.3085,-88.1395,2.256,8.85,1111122 
DISL,ioos:station:DISL:CATA:1,2017-11-03T17:30:00Z,30.3085,-88.1395,2.307,9.06,1111122 
DISL,ioos:station:DISL:CATA:1,2017-11-03T18:30:00Z,30.3085,-88.1395,2.341,9.38,1111122 
DISL,ioos:station:DISL:CATA:1,2017-11-03T19:30:00Z,30.3085,-88.1395,2.362,9.17,1111122 
DISL,ioos:station:DISL:CATA:1,2017-11-03T20:30:00Z,30.3085,-88.1395,2.388,9.29,1111122 
DISL,ioos:station:DISL:CATA:1,2017-11-03T21:30:00Z,30.3085,-88.1395,2.398,8.9,1111122 
DISL,ioos:station:DISL:CATA:1,2017-11-03T22:30:00Z,30.3085,-88.1395,2.438,8.09,1111122 
DISL,ioos:station:DISL:CATA:1,2017-11-04T00:30:00Z,30.3085,-88.1395,2.512,8.82,1111122 
DISL,ioos:station:DISL:CATA:1,2017-11-04T01:30:00Z,30.3085,-88.1395,2.533,8.45,1111122 
DISL,ioos:station:DISL:CATA:1,2017-11-04T02:30:00Z,30.3085,-88.1395,2.547,8.37,1111122 
DISL,ioos:station:DISL:CATA:1,2017-11-04T03:30:00Z,30.3085,-88.1395,2.564,8.31,1111122 
DISL,ioos:station:DISL:CATA:1,2017-11-04T04:30:00Z,30.3085,-88.1395,2.545,8.23,1111122 
DISL,ioos:station:DISL:CATA:1,2017-11-04T05:30:00Z,30.3085,-88.1395,2.518,7.72,1111122 
DISL,ioos:station:DISL:CATA:1,2017-11-04T06:30:00Z,30.3085,-88.1395,2.459,7.81,1111122 
DISL,ioos:station:DISL:CATA:1,2017-11-04T07:30:00Z,30.3085,-88.1395,2.381,8.0,1111122 
DISL,ioos:station:DISL:CATA:1,2017-11-04T08:30:00Z,30.3085,-88.1395,2.287,8.79,1111122 
DISL,ioos:station:DISL:CATA:1,2017-11-04T09:30:00Z,30.3085,-88.1395,2.193,8.67,1111122 
DISL,ioos:station:DISL:CATA:1,2017-11-04T10:30:00Z,30.3085,-88.1395,2.118,8.82,1111122 
DISL,ioos:station:DISL:CATA:1,2017-11-04T11:30:00Z,30.3085,-88.1395,2.071,8.97,1111122 
DISL,ioos:station:DISL:CATA:1,2017-11-04T12:30:00Z,30.3085,-88.1395,2.054,8.79,1111122 
DISL,ioos:station:DISL:CATA:1,2017-11-04T13:30:00Z,30.3085,-88.1395,2.081,8.7,1111122 
DISL,ioos:station:DISL:CATA:1,2017-11-04T14:30:00Z,30.3085,-88.1395,2.107,8.57,1111122 
DISL,ioos:station:DISL:CATA:1,2017-11-04T15:30:00Z,30.3085,-88.1395,2.137,8.48,1111122 
DISL,ioos:station:DISL:CATA:1,2017-11-04T16:30:00Z,30.3085,-88.1395,2.166,9.12,1111122 
DISL,ioos:station:DISL:CATA:1,2017-11-04T17:30:00Z,30.3085,-88.1395,2.216,9.49,1111122 
DISL,ioos:station:DISL:CATA:1,2017-11-04T18:30:00Z,30.3085,-88.1395,2.262,9.44,1111122 
DISL,ioos:station:DISL:CATA:1,2017-11-04T19:30:00Z,30.3085,-88.1395,2.309,9.55,1111122 
DISL,ioos:station:DISL:CATA:1,2017-11-04T20:30:00Z,30.3085,-88.1395,2.342,9.04,1111122 
DISL,ioos:station:DISL:CATA:1,2017-11-04T21:30:00Z,30.3085,-88.1395,2.37,9.0,1111122 
DISL,ioos:station:DISL:CATA:1,2017-11-04T22:30:00Z,30.3085,-88.1395,2.409,8.92,1111122 
DISL,ioos:station:DISL:CATA:1,2017-11-04T23:30:00Z,30.3085,-88.1395,2.464,8.69,1111122 
DISL,ioos:station:DISL:CATA:1,2017-11-05T00:30:00Z,30.3085,-88.1395,2.51,8.68,1111122 
DISL,ioos:station:DISL:CATA:1,2017-11-05T01:30:00Z,30.3085,-88.1395,2.558,8.66,1111122 
DISL,ioos:station:DISL:CATA:1,2017-11-05T02:30:00Z,30.3085,-88.1395,2.602,8.67,1111122 
DISL,ioos:station:DISL:CATA:1,2017-11-05T03:30:00Z,30.3085,-88.1395,2.613,8.62,1111122 
DISL,ioos:station:DISL:CATA:1,2017-11-05T04:30:00Z,30.3085,-88.1395,2.607,8.41,1111122 
DISL,ioos:station:DISL:CATA:1,2017-11-05T05:30:00Z,30.3085,-88.1395,2.575,7.77,1111122 
DISL,ioos:station:DISL:CATA:1,2017-11-05T06:30:00Z,30.3085,-88.1395,2.535,7.09,1111122 
DISL,ioos:station:DISL:CATA:1,2017-11-05T08:30:00Z,30.3085,-88.1395,2.388,7.94,1111122 
DISL,ioos:station:DISL:CATA:1,2017-11-05T09:30:00Z,30.3085,-88.1395,2.292,8.36,1111122 
DISL,ioos:station:DISL:CATA:1,2017-11-05T10:30:00Z,30.3085,-88.1395,2.196,8.09,1111122 
DISL,ioos:station:DISL:CATA:1,2017-11-05T11:30:00Z,30.3085,-88.1395,2.122,8.24,1111122 
DISL,ioos:station:DISL:CATA:1,2017-11-05T12:30:00Z,30.3085,-88.1395,2.065,8.51,1111122 
DISL,ioos:station:DISL:CATA:1,2017-11-05T13:30:00Z,30.3085,-88.1395,2.041,8.61,1111122 
DISL,ioos:station:DISL:CATA:1,2017-11-05T14:30:00Z,30.3085,-88.1395,2.058,8.73,1111122 
DISL,ioos:station:DISL:CATA:1,2017-11-05T15:30:00Z,30.3085,-88.1395,2.089,8.94,1111122 
DISL,ioos:station:DISL:CATA:1,2017-11-05T16:30:00Z,30.3085,-88.1395,2.119,8.98,1111122 
DISL,ioos:station:DISL:CATA:1,2017-11-05T17:30:00Z,30.3085,-88.1395,2.16,8.73,1111122 
DISL,ioos:station:DISL:CATA:1,2017-11-05T18:30:00Z,30.3085,-88.1395,2.221,9.28,1111122 
DISL,ioos:station:DISL:CATA:1,2017-11-05T19:30:00Z,30.3085,-88.1395,2.257,9.77,1111122 
DISL,ioos:station:DISL:CATA:1,2017-11-05T20:30:00Z,30.3085,-88.1395,2.308,9.5,1111122 
DISL,ioos:station:DISL:CATA:1,2017-11-05T21:30:00Z,30.3085,-88.1395,2.359,9.15,1111122 
DISL,ioos:station:DISL:CATA:1,2017-11-05T22:30:00Z,30.3085,-88.1395,2.421,8.82,1111122 
DISL,ioos:station:DISL:CATA:1,2017-11-05T23:30:00Z,30.3085,-88.1395,2.488,8.67,1111122 
DISL,ioos:station:DISL:CATA:1,2017-11-06T00:30:00Z,30.3085,-88.1395,2.549,8.55,1111122 
DISL,ioos:station:DISL:CATA:1,2017-11-06T01:30:00Z,30.3085,-88.1395,2.609,8.46,1111122 
DISL,ioos:station:DISL:CATA:1,2017-11-06T02:30:00Z,30.3085,-88.1395,2.657,8.44,1111122 
DISL,ioos:station:DISL:CATA:1,2017-11-06T03:30:00Z,30.3085,-88.1395,2.701,8.27,1111122 
DISL,ioos:station:DISL:CATA:1,2017-11-06T04:30:00Z,30.3085,-88.1395,2.696,8.18,1111122 
DISL,ioos:station:DISL:CATA:1,2017-11-06T05:30:00Z,30.3085,-88.1395,2.67,8.13,1111122 
DISL,ioos:station:DISL:CATA:1,2017-11-06T06:30:00Z,30.3085,-88.1395,2.612,7.46,1111122 
DISL,ioos:station:DISL:CATA:1,2017-11-06T07:30:00Z,30.3085,-88.1395,2.562,6.5,1111122 
DISL,ioos:station:DISL:CATA:1,2017-11-06T08:30:00Z,30.3085,-88.1395,2.483,7.6,1111122 
DISL,ioos:station:DISL:CATA:1,2017-11-06T09:30:00Z,30.3085,-88.1395,2.391,7.81,1111122 
DISL,ioos:station:DISL:CATA:1,2017-11-06T10:30:00Z,30.3085,-88.1395,2.286,7.68,1111122 
DISL,ioos:station:DISL:CATA:1,2017-11-06T11:30:00Z,30.3085,-88.1395,2.181,7.28,1111122 
DISL,ioos:station:DISL:CATA:1,2017-11-06T12:30:00Z,30.3085,-88.1395,2.092,7.42,1111122 
DISL,ioos:station:DISL:CATA:1,2017-11-06T13:30:00Z,30.3085,-88.1395,2.03,7.42,1111122 
DISL,ioos:station:DISL:CATA:1,2017-11-06T14:30:00Z,30.3085,-88.1395,1.993,7.88,1111122 
DISL,ioos:station:DISL:CATA:1,2017-11-06T15:30:00Z,30.3085,-88.1395,1.988,8.24,1111122 
DISL,ioos:station:DISL:CATA:1,2017-11-06T16:30:00Z,30.3085,-88.1395,2.01,8.5,1111122 
DISL,ioos:station:DISL:CATA:1,2017-11-06T17:30:00Z,30.3085,-88.1395,2.032,8.8,1111122 
DISL,ioos:station:DISL:CATA:1,2017-11-06T18:30:00Z,30.3085,-88.1395,2.078,8.72,1111122 
DISL,ioos:station:DISL:CATA:1,2017-11-06T19:30:00Z,30.3085,-88.1395,2.117,9.44,1111122 
DISL,ioos:station:DISL:CATA:1,2017-11-06T20:30:00Z,30.3085,-88.1395,2.164,9.47,1111122 
DISL,ioos:station:DISL:CATA:1,2017-11-06T21:30:00Z,30.3085,-88.1395,2.226,8.87,1111122 
DISL,ioos:station:DISL:CATA:1,2017-11-06T22:30:00Z,30.3085,-88.1395,2.279,8.78,1111122 
DISL,ioos:station:DISL:CATA:1,2017-11-06T23:30:00Z,30.3085,-88.1395,2.352,8.65,1111122 
DISL,ioos:station:DISL:CATA:1,2017-11-07T00:30:00Z,30.3085,-88.1395,2.416,8.15,1111122 
DISL,ioos:station:DISL:CATA:1,2017-11-07T01:30:00Z,30.3085,-88.1395,2.488,7.97,1111122 
DISL,ioos:station:DISL:CATA:1,2017-11-07T02:30:00Z,30.3085,-88.1395,2.555,7.86,1111122 
DISL,ioos:station:DISL:CATA:1,2017-11-07T03:30:00Z,30.3085,-88.1395,2.609,7.98,1111122 
DISL,ioos:station:DISL:CATA:1,2017-11-07T04:30:00Z,30.3085,-88.1395,2.641,7.8,1111122 
DISL,ioos:station:DISL:CATA:1,2017-11-07T05:30:00Z,30.3085,-88.1395,2.638,7.79,1111122 
DISL,ioos:station:DISL:CATA:1,2017-11-07T08:00:00Z,30.3085,-88.1395,2.544,6.83,1111122 
DISL,ioos:station:DISL:CATA:1,2017-11-07T09:30:00Z,30.3085,-88.1395,2.438,7.05,1111122 
DISL,ioos:station:DISL:CATA:1,2017-11-07T10:30:00Z,30.3085,-88.1395,2.357,7.12,1111122 
DISL,ioos:station:DISL:CATA:1,2017-11-07T11:30:00Z,30.3085,-88.1395,2.254,6.25,1111122 
DISL,ioos:station:DISL:CATA:1,2017-11-07T12:30:00Z,30.3085,-88.1395,2.626,7.75,1111122 
DISL,ioos:station:DISL:CATA:1,2017-11-07T12:30:00Z,30.3085,-88.1395,2.153,5.89,1111122 
DISL,ioos:station:DISL:CATA:1,2017-11-07T13:00:00Z,30.3085,-88.1395,2.626,7.75,1111122 
DISL,ioos:station:DISL:CATA:1,2017-11-07T13:00:00Z,30.3085,-88.1395,2.118,5.82,1111122 
DISL,ioos:station:DISL:CATA:1,2017-11-07T14:30:00Z,30.3085,-88.1395,2.033,5.87,1111122 
DISL,ioos:station:DISL:CATA:1,2017-11-07T15:30:00Z,30.3085,-88.1395,2.015,5.81,1111122 
DISL,ioos:station:DISL:CATA:1,2017-11-07T16:30:00Z,30.3085,-88.1395,2.02,5.9,1111122 
DISL,ioos:station:DISL:CATA:1,2017-11-07T17:30:00Z,30.3085,-88.1395,2.032,5.87,1111122 
DISL,ioos:station:DISL:CATA:1,2017-11-07T18:30:00Z,30.3085,-88.1395,2.064,5.53,1111122 
DISL,ioos:station:DISL:CATA:1,2017-11-07T19:30:00Z,30.3085,-88.1395,2.104,7.52,1111122 
DISL,ioos:station:DISL:CATA:1,2017-11-07T20:30:00Z,30.3085,-88.1395,2.154,7.42,1111122 
DISL,ioos:station:DISL:CATA:1,2017-11-07T21:30:00Z,30.3085,-88.1395,2.203,7.86,1111122 
DISL,ioos:station:DISL:CATA:1,2017-11-07T22:30:00Z,30.3085,-88.1395,2.287,7.61,1111122 
DISL,ioos:station:DISL:CATA:1,2017-11-07T23:30:00Z,30.3085,-88.1395,2.349,7.41,1111122 
DISL,ioos:station:DISL:CATA:1,2017-11-08T00:30:00Z,30.3085,-88.1395,2.407,7.45,1111122 
DISL,ioos:station:DISL:CATA:1,2017-11-08T01:30:00Z,30.3085,-88.1395,2.478,7.4,1111122 
DISL,ioos:station:DISL:CATA:1,2017-11-08T02:30:00Z,30.3085,-88.1395,2.544,7.28,1111122 
DISL,ioos:station:DISL:CATA:1,2017-11-08T03:30:00Z,30.3085,-88.1395,2.605,7.32,1111122 
DISL,ioos:station:DISL:CATA:1,2017-11-08T05:30:00Z,30.3085,-88.1395,2.673,7.1,1111122 
DISL,ioos:station:DISL:CATA:1,2017-11-08T06:30:00Z,30.3085,-88.1395,2.656,7.06,1111122 
DISL,ioos:station:DISL:CATA:1,2017-11-08T07:30:00Z,30.3085,-88.1395,2.621,6.86,1111122 
DISL,ioos:station:DISL:CATA:1,2017-11-08T08:30:00Z,30.3085,-88.1395,2.59,6.45,1111122 
DISL,ioos:station:DISL:CATA:1,2017-11-08T09:30:00Z,30.3085,-88.1395,2.529,6.41,1111122 
DISL,ioos:station:DISL:CATA:1,2017-11-08T10:30:00Z,30.3085,-88.1395,2.456,6.37,1111122 
DISL,ioos:station:DISL:CATA:1,2017-11-08T11:30:00Z,30.3085,-88.1395,2.37,5.91,1111122 
DISL,ioos:station:DISL:CATA:1,2017-11-08T12:30:00Z,30.3085,-88.1395,2.255,5.98,1111122 
DISL,ioos:station:DISL:CATA:1,2017-11-08T13:30:00Z,30.3085,-88.1395,2.172,5.04,1111122 
DISL,ioos:station:DISL:CATA:1,2017-11-08T14:30:00Z,30.3085,-88.1395,2.087,5.46,1111122 
DISL,ioos:station:DISL:CATA:1,2017-11-08T15:30:00Z,30.3085,-88.1395,2.035,5.73,1111122 
DISL,ioos:station:DISL:CATA:1,2017-11-08T16:30:00Z,30.3085,-88.1395,2.0,6.27,1111122 
DISL,ioos:station:DISL:CATA:1,2017-11-08T17:30:00Z,30.3085,-88.1395,2.012,6.64,1111122 
DISL,ioos:station:DISL:CATA:1,2017-11-08T18:30:00Z,30.3085,-88.1395,2.02,7.15,1111122 
DISL,ioos:station:DISL:CATA:1,2017-11-08T19:30:00Z,30.3085,-88.1395,2.056,7.59,1111122 
DISL,ioos:station:DISL:CATA:1,2017-11-08T20:30:00Z,30.3085,-88.1395,2.116,7.63,1111122 
DISL,ioos:station:DISL:CATA:1,2017-11-08T21:30:00Z,30.3085,-88.1395,2.172,7.54,1111122 
DISL,ioos:station:DISL:CATA:1,2017-11-08T22:30:00Z,30.3085,-88.1395,2.2,7.88,1111122 
DISL,ioos:station:DISL:CATA:1,2017-11-08T23:30:00Z,30.3085,-88.1395,2.227,7.07,1111122 
DISL,ioos:station:DISL:CATA:1,2017-11-09T00:30:00Z,30.3085,-88.1395,2.265,6.58,1111122 
DISL,ioos:station:DISL:CATA:1,2017-11-09T01:30:00Z,30.3085,-88.1395,2.308,6.6,1111122 
DISL,ioos:station:DISL:CATA:1,2017-11-09T02:30:00Z,30.3085,-88.1395,2.393,6.54,1111122 
DISL,ioos:station:DISL:CATA:1,2017-11-09T03:30:00Z,30.3085,-88.1395,2.464,6.48,1111122 
DISL,ioos:station:DISL:CATA:1,2017-11-09T04:00:00Z,30.3085,-88.1395,2.487,6.57,1111122 
DISL,ioos:station:DISL:CATA:1,2017-11-09T05:30:00Z,30.3085,-88.1395,2.585,6.66,1111122 
DISL,ioos:station:DISL:CATA:1,2017-11-09T07:30:00Z,30.3085,-88.1395,2.569,6.41,1111122 
DISL,ioos:station:DISL:CATA:1,2017-11-09T08:30:00Z,30.3085,-88.1395,2.54,6.27,1111122 
DISL,ioos:station:DISL:CATA:1,2017-11-09T09:30:00Z,30.3085,-88.1395,2.498,5.99,1111122 
DISL,ioos:station:DISL:CATA:1,2017-11-09T10:30:00Z,30.3085,-88.1395,2.453,5.79,1111122 
DISL,ioos:station:DISL:CATA:1,2017-11-09T11:30:00Z,30.3085,-88.1395,2.386,6.5,1111122 
DISL,ioos:station:DISL:CATA:1,2017-11-09T12:30:00Z,30.3085,-88.1395,2.579,6.6,1111122 
DISL,ioos:station:DISL:CATA:1,2017-11-09T12:30:00Z,30.3085,-88.1395,2.301,6.94,1111122 
DISL,ioos:station:DISL:CATA:1,2017-11-09T13:30:00Z,30.3085,-88.1395,2.192,6.95,1111122 
DISL,ioos:station:DISL:CATA:1,2017-11-09T14:30:00Z,30.3085,-88.1395,2.106,6.93,1111122 
DISL,ioos:station:DISL:CATA:1,2017-11-09T15:30:00Z,30.3085,-88.1395,2.036,7.1,1111122 
DISL,ioos:station:DISL:CATA:1,2017-11-09T16:30:00Z,30.3085,-88.1395,1.965,7.32,1111122 
DISL,ioos:station:DISL:CATA:1,2017-11-09T17:30:00Z,30.3085,-88.1395,1.931,7.54,1111122 
DISL,ioos:station:DISL:CATA:1,2017-11-09T18:30:00Z,30.3085,-88.1395,1.973,7.49,1111122 
DISL,ioos:station:DISL:CATA:1,2017-11-09T19:30:00Z,30.3085,-88.1395,2.004,7.53,1111122 
DISL,ioos:station:DISL:CATA:1,2017-11-09T20:30:00Z,30.3085,-88.1395,2.026,7.43,1111122 
DISL,ioos:station:DISL:CATA:1,2017-11-09T21:30:00Z,30.3085,-88.1395,2.057,8.19,1111122 
DISL,ioos:station:DISL:CATA:1,2017-11-09T22:30:00Z,30.3085,-88.1395,2.097,8.09,1111122 
DISL,ioos:station:DISL:CATA:1,2017-11-09T23:30:00Z,30.3085,-88.1395,2.15,8.01,1111122 
DISL,ioos:station:DISL:CATA:1,2017-11-10T00:30:00Z,30.3085,-88.1395,2.192,7.96,1111122 
DISL,ioos:station:DISL:CATA:1,2017-11-10T01:30:00Z,30.3085,-88.1395,2.262,7.93,1111122 
DISL,ioos:station:DISL:CATA:1,2017-11-10T02:30:00Z,30.3085,-88.1395,2.287,7.79,1111122 
DISL,ioos:station:DISL:CATA:1,2017-11-10T03:30:00Z,30.3085,-88.1395,2.36,7.83,1111122 
DISL,ioos:station:DISL:CATA:1,2017-11-10T04:30:00Z,30.3085,-88.1395,2.392,7.87,1111122 
DISL,ioos:station:DISL:CATA:1,2017-11-10T05:30:00Z,30.3085,-88.1395,2.42,7.89,1111122 
DISL,ioos:station:DISL:CATA:1,2017-11-10T06:30:00Z,30.3085,-88.1395,2.478,7.74,1111122 
DISL,ioos:station:DISL:CATA:1,2017-11-10T07:30:00Z,30.3085,-88.1395,2.514,7.52,1111122 
DISL,ioos:station:DISL:CATA:1,2017-11-10T08:30:00Z,30.3085,-88.1395,2.523,7.22,1111122 
DISL,ioos:station:DISL:CATA:1,2017-11-10T09:30:00Z,30.3085,-88.1395,2.524,7.28,1111122 
DISL,ioos:station:DISL:CATA:1,2017-11-10T10:30:00Z,30.3085,-88.1395,2.491,7.13,1111122 
DISL,ioos:station:DISL:CATA:1,2017-11-10T11:30:00Z,30.3085,-88.1395,2.443,6.75,1111122 
DISL,ioos:station:DISL:CATA:1,2017-11-10T12:30:00Z,30.3085,-88.1395,2.38,6.9,1111122 
DISL,ioos:station:DISL:CATA:1,2017-11-10T13:30:00Z,30.3085,-88.1395,2.318,8.09,1111122 
DISL,ioos:station:DISL:CATA:1,2017-11-10T14:30:00Z,30.3085,-88.1395,2.231,8.1,1111122 
DISL,ioos:station:DISL:CATA:1,2017-11-10T15:30:00Z,30.3085,-88.1395,2.134,8.05,1111122 
DISL,ioos:station:DISL:CATA:1,2017-11-10T16:30:00Z,30.3085,-88.1395,2.074,8.1,1111122 
DISL,ioos:station:DISL:CATA:1,2017-11-10T17:30:00Z,30.3085,-88.1395,2.035,8.23,1111122 
DISL,ioos:station:DISL:CATA:1,2017-11-10T18:30:00Z,30.3085,-88.1395,2.039,8.09,1111122 
DISL,ioos:station:DISL:CATA:1,2017-11-10T19:30:00Z,30.3085,-88.1395,2.07,7.95,1111122 
DISL,ioos:station:DISL:CATA:1,2017-11-10T20:30:00Z,30.3085,-88.1395,2.084,7.54,1111122 
DISL,ioos:station:DISL:CATA:1,2017-11-10T21:30:00Z,30.3085,-88.1395,2.09,7.58,1111122 
DISL,ioos:station:DISL:CATA:1,2017-11-10T22:30:00Z,30.3085,-88.1395,2.107,7.74,1111122 
DISL,ioos:station:DISL:CATA:1,2017-11-10T23:30:00Z,30.3085,-88.1395,2.161,7.79,1111122 
DISL,ioos:station:DISL:CATA:1,2017-11-11T00:30:00Z,30.3085,-88.1395,2.209,8.32,1111122 
DISL,ioos:station:DISL:CATA:1,2017-11-11T01:30:00Z,30.3085,-88.1395,2.239,9.02,1111122 
DISL,ioos:station:DISL:CATA:1,2017-11-11T02:30:00Z,30.3085,-88.1395,2.259,8.61,1111122 
DISL,ioos:station:DISL:CATA:1,2017-11-11T03:30:00Z,30.3085,-88.1395,2.3,8.61,1111122 
DISL,ioos:station:DISL:CATA:1,2017-11-11T04:30:00Z,30.3085,-88.1395,2.332,8.54,1111122 
DISL,ioos:station:DISL:CATA:1,2017-11-11T05:30:00Z,30.3085,-88.1395,2.365,8.35,1111122 
DISL,ioos:station:DISL:CATA:1,2017-11-11T06:30:00Z,30.3085,-88.1395,2.415,8.37,1111122 
DISL,ioos:station:DISL:CATA:1,2017-11-11T07:30:00Z,30.3085,-88.1395,2.443,8.23,1111122 
DISL,ioos:station:DISL:CATA:1,2017-11-11T08:30:00Z,30.3085,-88.1395,2.45,8.27,1111122 
DISL,ioos:station:DISL:CATA:1,2017-11-11T09:30:00Z,30.3085,-88.1395,2.447,8.16,1111122 
DISL,ioos:station:DISL:CATA:1,2017-11-11T10:30:00Z,30.3085,-88.1395,2.418,8.62,1111122 
DISL,ioos:station:DISL:CATA:1,2017-11-11T11:30:00Z,30.3085,-88.1395,2.391,8.45,1111122 
DISL,ioos:station:DISL:CATA:1,2017-11-11T12:30:00Z,30.3085,-88.1395,2.375,8.29,1111122 
DISL,ioos:station:DISL:CATA:1,2017-11-11T13:30:00Z,30.3085,-88.1395,2.34,8.33,1111122 
DISL,ioos:station:DISL:CATA:1,2017-11-11T14:30:00Z,30.3085,-88.1395,2.299,8.23,1111122 
DISL,ioos:station:DISL:CATA:1,2017-11-11T15:30:00Z,30.3085,-88.1395,2.248,8.23,1111122 
DISL,ioos:station:DISL:CATA:1,2017-11-11T16:30:00Z,30.3085,-88.1395,2.221,8.34,1111122 
DISL,ioos:station:DISL:CATA:1,2017-11-11T17:30:00Z,30.3085,-88.1395,2.215,8.51,1111122 
DISL,ioos:station:DISL:CATA:1,2017-11-11T18:30:00Z,30.3085,-88.1395,2.213,8.24,1111122 
DISL,ioos:station:DISL:CATA:1,2017-11-11T19:30:00Z,30.3085,-88.1395,2.211,8.23,1111122 
DISL,ioos:station:DISL:CATA:1,2017-11-11T20:30:00Z,30.3085,-88.1395,2.228,8.24,1111122 
DISL,ioos:station:DISL:CATA:1,2017-11-11T21:30:00Z,30.3085,-88.1395,2.244,8.23,1111122 
DISL,ioos:station:DISL:CATA:1,2017-11-11T22:00:00Z,30.3085,-88.1395,2.253,8.26,1111122 
DISL,ioos:station:DISL:CATA:1,2017-11-11T23:30:00Z,30.3085,-88.1395,2.305,8.22,1111122 
DISL,ioos:station:DISL:CATA:1,2017-11-12T00:30:00Z,30.3085,-88.1395,2.34,7.98,1111122 
DISL,ioos:station:DISL:CATA:1,2017-11-12T01:30:00Z,30.3085,-88.1395,2.376,8.05,1111122 
DISL,ioos:station:DISL:CATA:1,2017-11-12T02:30:00Z,30.3085,-88.1395,2.416,8.12,1111122 
DISL,ioos:station:DISL:CATA:1,2017-11-12T04:30:00Z,30.3085,-88.1395,2.484,7.72,1111122 
DISL,ioos:station:DISL:CATA:1,2017-11-12T05:30:00Z,30.3085,-88.1395,2.456,7.96,1111122 
DISL,ioos:station:DISL:CATA:1,2017-11-12T06:30:00Z,30.3085,-88.1395,2.441,8.36,1111122 
DISL,ioos:station:DISL:CATA:1,2017-11-12T07:30:00Z,30.3085,-88.1395,2.446,8.33,1111122 
DISL,ioos:station:DISL:CATA:1,2017-11-12T10:30:00Z,30.3085,-88.1395,2.435,8.1,1111122 
DISL,ioos:station:DISL:CATA:1,2017-11-12T11:30:00Z,30.3085,-88.1395,2.408,8.07,1111122 
DISL,ioos:station:DISL:CATA:1,2017-11-12T13:00:00Z,30.3085,-88.1395,2.391,8.01,1111122 
DISL,ioos:station:DISL:CATA:1,2017-11-12T15:30:00Z,30.3085,-88.1395,2.319,8.08,1111122 